Voltar ao catálogo

SL-16 DEB

LostLEO
NORAD 39887·DEBRIS·🇷🇺 Russia

Lançado Mar 26, 1993 de Baikonur Cosmodrome

Loading…

Próximas Passagens (próximas 24 horas)

TLE

ObsoletoSource: Space-Track

Época: Jun 2, 2024, 15:59 UTC

1 39887U 93016BM  24154.66652561  .00016540  00000-0  48921-2 0  9999
2 39887  70.9337 157.6895 0102457 298.0635  61.0169 14.40443687517309

Acompanhe SL-16 DEB em tempo real com AllMySat

Download on the App Store